User: anonymous   Login
Location: Caltech
(34.1382°N, 118.1253°W)
Time: 07:22:08
(UTC-07:00)
Language:

Cosmos 44 Rocket - Orbit

View from above orbital plane
View from above orbital plane
View from above satellite
View from above satellite

Ground track
Ground track

The orbit data is extracted from the following two-line orbital elements,

1   877U 64053B   17084.64473998 -.00000050 +00000-0 +14670-4 0  9998
2   877 065.0783 176.4393 0057996 157.2333 203.1358 14.59285836789339
Epoch (UTC): 25 March 2017 15:28:25
Eccentricity: 0.0057996
inclination: 65.0783°
perigee height: 654 km
apogee height: 736 km
right ascension of ascending node: 176.4393°
argument of perigee: 157.2333°
revolutions per day: 14.59285836
mean anomaly at epoch: 203.1358°
orbit number at epoch: 78933

The dashed part of the orbit path shows where the satellite is in the earth's shadow,  

DLR